| time (UTC) | temp C | wind direction | speed KPH | gust KPH | rain 1hr cm | rain 24hr cm | rain mn cm | humidity % | barometer mb |
| 20260505061549 | 13 | 118 | 0.0 | 6.4 | 0.00 | 0.00 | 0.00 | 88 | 1013.6 |
| 20260505060045 | 14 | 132 | 3.2 | 9.7 | 0.00 | 0.00 | 0.00 | 85 | 1013.6 |
| 20260505054546 | 15 | 113 | 1.6 | 6.4 | 0.00 | 0.00 | 0.00 | 81 | 1013.2 |
| 20260505053045 | 15 | 173 | 0.0 | 4.8 | 0.00 | 0.00 | 0.00 | 80 | 1013.0 |
| 20260505051542 | 15 | 128 | 1.6 | 4.8 | 0.00 | 0.00 | 0.00 | 79 | 1013.0 |
| 20260505041528 | 16 | 200 | 8.0 | 0.0 | 0.00 | 0.00 | 0.00 | 70 | 1012.9 |
| 20260505040026 | 16 | 139 | 3.2 | 16.1 | 0.00 | 0.00 | 0.00 | 67 | 1012.8 |
| 20260505034524 | 16 | 163 | 3.2 | 12.9 | 0.00 | 0.00 | 0.00 | 65 | 1012.9 |
| 20260505033020 | 17 | 214 | 3.2 | 14.5 | 0.00 | 0.00 | 0.00 | 63 | 1013.0 |
| 20260505031522 | 17 | 218 | 4.8 | 11.3 | 0.00 | 0.00 | 0.00 | 62 | 1013.1 |
| 20260505030017 | 17 | 202 | 8.0 | 19.3 | 0.00 | 0.00 | 0.00 | 61 | 1013.3 |
| 20260505024515 | 17 | 232 | 11.3 | 24.1 | 0.00 | 0.00 | 0.00 | 60 | 1013.4 |
| 20260505023019 | 17 | 224 | 8.0 | 16.1 | 0.00 | 0.00 | 0.00 | 59 | 1013.5 |
| 20260505021512 | 17 | 226 | 4.8 | 9.7 | 0.00 | 0.00 | 0.00 | 60 | 1013.7 |
| 20260505020010 | 17 | 200 | 3.2 | 9.7 | 0.00 | 0.00 | 0.00 | 59 | 1013.7 |
| 20260505014508 | 17 | 249 | 6.4 | 12.9 | 0.00 | 0.00 | 0.00 | 59 | 1013.9 |
| 20260505013007 | 17 | 256 | 6.4 | 12.9 | 0.00 | 0.00 | 0.00 | 58 | 1014.0 |
| 20260505011503 | 17 | 167 | 1.6 | 8.0 | 0.00 | 0.00 | 0.00 | 57 | 1014.2 |
| 20260505010005 | 17 | 263 | 4.8 | 12.9 | 0.00 | 0.00 | 0.00 | 56 | 1014.5 |
| 20260505004600 | 17 | 222 | 4.8 | 17.7 | 0.00 | 0.00 | 0.00 | 55 | 1014.7 |
| 20260505003100 | 17 | 193 | 4.8 | 12.9 | 0.00 | 0.00 | 0.00 | 54 | 1014.7 |
| 20260505001557 | 17 | 246 | 9.7 | 17.7 | 0.00 | 0.00 | 0.00 | 53 | 1014.8 |
| 20260505000053 | 18 | 222 | 8.0 | 19.3 | 0.00 | 0.00 | 0.00 | 51 | 1014.9 |
| 20260504234551 | 18 | 215 | 9.7 | 24.1 | 0.00 | 0.00 | 0.00 | 49 | 1014.9 |
| 20260504233048 | 18 | 155 | 12.9 | 20.9 | 0.00 | 0.00 | 0.00 | 50 | 1015.0 |
| 20260504231546 | 18 | 207 | 9.7 | 19.3 | 0.00 | 0.00 | 0.00 | 51 | 1015.2 |
| 20260504230046 | 18 | 162 | 9.7 | 22.5 | 0.00 | 0.00 | 0.00 | 52 | 1015.3 |
| 20260504224540 | 18 | 183 | 11.3 | 22.5 | 0.00 | 0.00 | 0.00 | 52 | 1015.4 |
| 20260504223040 | 18 | 194 | 11.3 | 20.9 | 0.00 | 0.00 | 0.00 | 52 | 1015.4 |
| 20260504221548 | 18 | 203 | 8.0 | 19.3 | 0.00 | 0.00 | 0.00 | 54 | 1015.4 |
| 20260504220035 | 18 | 190 | 9.7 | 20.9 | 0.00 | 0.00 | 0.00 | 55 | 1015.5 |
| 20260504214534 | 18 | 177 | 11.3 | 25.7 | 0.00 | 0.00 | 0.00 | 58 | 1015.5 |
| 20260504213042 | 18 | 179 | 12.9 | 27.4 | 0.00 | 0.00 | 0.00 | 59 | 1015.6 |
| 20260504211535 | 18 | 218 | 12.9 | 22.5 | 0.00 | 0.00 | 0.00 | 58 | 1015.6 |
| 20260504210029 | 19 | 211 | 19.3 | 32.2 | 0.00 | 0.00 | 0.00 | 57 | 1015.6 |
| 20260504204530 | 19 | 226 | 12.9 | 29.0 | 0.00 | 0.00 | 0.00 | 56 | 1015.7 |
| 20260504203042 | 19 | 193 | 17.7 | 33.8 | 0.00 | 0.00 | 0.00 | 56 | 1015.6 |
| 20260504201527 | 19 | 152 | 11.3 | 24.1 | 0.00 | 0.00 | 0.00 | 56 | 1015.6 |
| 20260504200026 | 18 | 181 | 11.3 | 24.1 | 0.00 | 0.00 | 0.00 | 56 | 1015.5 |
| 20260504194531 | 19 | 146 | 11.3 | 25.7 | 0.00 | 0.00 | 0.00 | 55 | 1015.4 |
| 20260504193026 | 19 | 158 | 11.3 | 19.3 | 0.00 | 0.00 | 0.00 | 53 | 1015.2 |
| 20260504191535 | 20 | 162 | 11.3 | 19.3 | 0.00 | 0.00 | 0.00 | 51 | 1015.1 |
| 20260504190024 | 20 | 152 | 8.0 | 16.1 | 0.00 | 0.00 | 0.00 | 51 | 1015.1 |
| 20260504184523 | 20 | 179 | 6.4 | 14.5 | 0.00 | 0.00 | 0.00 | 50 | 1015.0 |
| 20260504183022 | 20 | 155 | 8.0 | 17.7 | 0.00 | 0.00 | 0.00 | 48 | 1015.0 |
| 20260504181523 | 21 | 195 | 9.7 | 20.9 | 0.00 | 0.00 | 0.00 | 46 | 1015.0 |
| 20260504180120 | 21 | 153 | 14.5 | 25.7 | 0.00 | 0.00 | 0.00 | 44 | 1014.9 |
| 20260504174520 | 22 | 200 | 9.7 | 17.7 | 0.00 | 0.00 | 0.00 | 42 | 1014.9 |
| 20260504173020 | 22 | 221 | 12.9 | 24.1 | 0.00 | 0.00 | 0.00 | 41 | 1014.9 |
| 20260504171528 | 23 | 203 | 11.3 | 20.9 | 0.00 | 0.00 | 0.00 | 39 | 1015.0 |
| 20260504081530 | 21 | 212 | 4.8 | 9.7 | 0.00 | 0.00 | 0.00 | 42 | 1017.8 |